Retour au catalogue

TITAN 3C TRANSTAGE DEB

LostHEO
NORAD 35502·DEBRIS·🇺🇸 United States

Lancé Dec 21, 1965 depuis Cape Canaveral Space Force Station

Loading…

Prochains Passages (prochaines 24 heures)

TLE

PériméSource: Space-Track

Époque: May 16, 2026, 07:11 UTC

1 35502U 65108DH  26136.29993700  .00000297  00000-0  71973-3 0  9990
2 35502  26.6689 209.4761 6607773  68.1505 347.1469  3.03814933  1384

Suivez TITAN 3C TRANSTAGE DEB en temps réel avec AllMySat

Download on the App Store